User: anonymous
Location: Caltech
(34.1382°N, 118.1253°W)
Time: 11:18:37
(UTC-08:00)
Language:

SO-67 - Orbit

View from above orbital plane
View from above orbital plane
View from above satellite
View from above satellite

Ground track
Ground track

The orbit data is extracted from the following two-line orbital elements,

1 35870U 09049F   14360.41773854  .00020108  00000-0  55203-3 0  8233
2 35870 097.1478 015.9322 0003290 100.8315 006.6047 15.37270143293533
Epoch (UTC): 26 December 2014 10:01:32
Eccentricity: 0.0003290
inclination: 97.1478°
perigee height: 452 km
apogee height: 456 km
right ascension of ascending node: 15.9322°
argument of perigee: 100.8315°
revolutions per day: 15.37270143
mean anomaly at epoch: 6.6047°
orbit number at epoch: 29353

The dashed part of the orbit path shows where the satellite is in the earth's shadow,  

DLR